Question-and-Answer Resource for the Building Energy Modeling Community
Get started with the Help page
Ask Your Question

Julien Marrec's profile - karma

Julien Marrec's karma change log

10 0 How can I create a .stat file from an EPW? ( 2018-11-16 05:50:59 -0600 )

15 0 Open studio load calculation ( 2018-11-13 08:43:47 -0600 )

10 0 Open studio load calculation ( 2018-11-12 13:26:25 -0600 )

10 0 How can I model a ductless split HVAC system? ( 2018-11-09 12:56:40 -0600 )

10 0 What are the available sources for historical weather data? ( 2018-11-09 00:35:45 -0600 )

10 0 Hydronic Unit Heaters in Plant Loops ( 2018-11-06 00:33:08 -0600 )

10 0 openstudio-server on windows server 2012 r2 ( 2018-11-05 16:24:41 -0600 )

10 0 Reducing WWR to 40%: which approach? ( 2018-11-05 10:46:07 -0600 )

10 0 Changing Discharge Curves for Ice Storage in Open Studio ( 2018-11-05 08:41:54 -0600 )

10 0 EnergyPlus IDF editor copy paste ( 2018-11-01 20:05:22 -0600 )

10 0 OpenStudio weather file design days ( 2018-11-01 12:11:12 -0600 )

10 0 Applying schedule sets / construction sets clarification question ( 2018-10-31 07:24:06 -0600 )

10 0 When calibrating an energy model, what are the typical metrics to show proper calibration. ( 2018-10-29 03:31:28 -0600 )

10 0 How to model a space with multiple thermal zones in OpenStudio? ( 2018-10-29 00:01:10 -0600 )

10 0 How can I create unconditioned thermal zone? ( 2018-10-27 20:07:11 -0600 )

10 0 ASHRAE 189.1-2009 and Default constructions ( 2018-10-27 19:50:50 -0600 )

10 0 Making a new construction in Sketchup 2016 using Open Studio Plug-in ( 2018-10-24 19:17:34 -0600 )

10 0 Definitive right way to model a WSHP loop ( 2018-10-22 12:08:41 -0600 )

10 0 Where are the default chiller curve coefficient coming from in OS? ( 2018-10-18 08:21:51 -0600 )

10 0 Operating speed of OpenStudio ( 2018-10-18 00:42:15 -0600 )

10 0 Operating speed of OpenStudio ( 2018-10-17 18:47:00 -0600 )

10 0 Operating speed of OpenStudio ( 2018-10-17 10:21:27 -0600 )

10 0 Humidity control ( 2018-10-13 17:33:53 -0600 )

0 -10 Humidity control ( 2018-10-13 17:33:52 -0600 )

10 0 Humidity control ( 2018-10-13 17:33:44 -0600 )

0 -10 Humidity control ( 2018-10-13 17:33:43 -0600 )

10 0 Humidity control ( 2018-10-13 17:33:31 -0600 )

10 0 What software can generate an energy model from CAD or BIM? ( 2018-10-10 01:18:52 -0600 )

10 0 Inlet Node Name is required but was blank ( 2018-10-03 15:55:19 -0600 )

10 0 What software can generate an energy model from CAD or BIM? ( 2018-10-01 08:50:13 -0600 )

15 0 water heater sizing object missing in OpenStudio ( 2018-09-27 23:03:30 -0600 )

10 0 water heater sizing object missing in OpenStudio ( 2018-09-27 08:44:45 -0600 )

10 0 water heater sizing object missing in OpenStudio ( 2018-09-27 08:29:50 -0600 )

10 0 What software can generate an energy model from CAD or BIM? ( 2018-09-25 09:02:04 -0600 )

10 0 What is the difference between the Design Coil Load (Btu/hr) and the Nominal Total Capacity (Btu/hr) reported from EnergyPlus. ( 2018-09-25 06:37:23 -0600 )

10 0 E+, How to model a AHU double fan (supply air and return air) ( 2018-09-24 07:59:27 -0600 )

10 0 What software can generate an energy model from CAD or BIM? ( 2018-09-24 01:05:14 -0600 )

10 0 E+, How to model a AHU double fan (supply air and return air) ( 2018-09-24 01:04:52 -0600 )

0 -10 How can I create a .stat file from an EPW? ( 2018-09-20 01:55:34 -0600 )

10 0 How can I create a .stat file from an EPW? ( 2018-09-20 01:55:32 -0600 )

10 0 EnergyPlus Number of Output Variables Limitation ( 2018-09-20 01:29:16 -0600 )

10 0 How do you model exhaust fans in eQuest? ( 2018-09-19 12:40:44 -0600 )

10 0 Definitive right way to model a WSHP loop ( 2018-09-18 17:05:18 -0600 )

10 0 linux ide (editor) for energyplus idf files ( 2018-09-18 14:10:17 -0600 )

15 0 linux ide (editor) for energyplus idf files ( 2018-09-18 08:35:05 -0600 )

10 0 linux ide (editor) for energyplus idf files ( 2018-09-18 07:58:37 -0600 )

10 0 linux ide (editor) for energyplus idf files ( 2018-09-18 05:37:37 -0600 )

10 0 how do I export Space name and SpaceType name into csv with an OpenStudio measure? ( 2018-09-17 09:24:20 -0600 )

10 0 Is eQuest finished? ( 2018-09-15 12:19:35 -0600 )

10 0 What is the (Current) State of the OpenStudio Radiance Measure? ( 2018-09-13 16:10:19 -0600 )

10 0 Weather file issues ( 2018-09-13 14:40:32 -0600 )

15 0 openstudio four pipe beam unit ( 2018-09-13 13:31:45 -0600 )

10 0 openstudio four pipe beam unit ( 2018-09-13 09:22:09 -0600 )

10 0 Weather file issues ( 2018-09-13 09:21:57 -0600 )

10 0 Weather file issues ( 2018-09-13 04:12:59 -0600 )

10 0 openstudio four pipe beam unit ( 2018-09-13 04:03:45 -0600 )

10 0 How to set spacetype.people by measure? ( 2018-09-10 10:07:20 -0600 )

10 0 Central Heat Pump System Working for Cooling But Not Heating ( 2018-09-10 09:06:16 -0600 )

10 0 How to set spacetype.people by measure? ( 2018-09-10 07:56:28 -0600 )

2 0 How do I run a simulation by using c#? ( 2018-09-10 03:39:12 -0600 )

15 0 What output variable will show a difference between a model with convex vs. non-convex surfaces ( 2018-09-06 10:41:00 -0600 )

10 0 What output variable will show a difference between a model with convex vs. non-convex surfaces ( 2018-09-06 10:27:43 -0600 )

10 0 What output variable will show a difference between a model with convex vs. non-convex surfaces ( 2018-09-06 07:33:02 -0600 )

10 0 What output variable will show a difference between a model with convex vs. non-convex surfaces ( 2018-09-06 06:52:47 -0600 )

10 0 What output variable will show a difference between a model with convex vs. non-convex surfaces ( 2018-09-06 02:45:18 -0600 )

10 0 What output variable will show a difference between a model with convex vs. non-convex surfaces ( 2018-09-05 08:12:49 -0600 )

10 0 changing window surface area/sqrft in Energy plus chicago office building IDF ( 2018-09-05 04:14:59 -0600 )

15 0 Adding osm objects from one model to another ( 2018-09-04 19:34:23 -0600 )

10 0 How to add Fan zone exhaust by measure? ( 2018-09-03 22:30:09 -0600 )

10 0 How to add Fan zone exhaust by measure? ( 2018-09-03 10:12:02 -0600 )

10 0 What is the difference between the Design Coil Load (Btu/hr) and the Nominal Total Capacity (Btu/hr) reported from EnergyPlus. ( 2018-08-31 04:47:43 -0600 )

15 0 Availability for two different systems: VRF and radiant floors ( 2018-08-29 11:31:18 -0600 )

10 0 Heat recovery Chiller - Central Heat Pump System ( 2018-08-28 07:39:06 -0600 )

15 0 EnergyPlus Runperiod setup ( 2018-08-26 07:57:45 -0600 )

10 0 EnergyPlus Runperiod setup ( 2018-08-24 02:53:30 -0600 )

0 -15 Adding osm objects from one model to another ( 2018-08-23 16:46:25 -0600 )

15 0 Adding osm objects from one model to another ( 2018-08-23 16:46:08 -0600 )

10 0 Adding osm objects from one model to another ( 2018-08-23 13:58:36 -0600 )

10 0 EnergyPlus Runperiod setup ( 2018-08-23 11:58:51 -0600 )

10 0 Adding osm objects from one model to another ( 2018-08-23 08:23:56 -0600 )

10 0 Energy storage dispatch ( 2018-08-22 13:00:35 -0600 )

10 0 Energy storage dispatch ( 2018-08-22 06:53:33 -0600 )

10 0 Heating ThermalStorage tank in E+ ( 2018-08-20 11:09:30 -0600 )

10 0 Does the E+ Weather Converter ship on mac? ( 2018-08-15 12:48:04 -0600 )

15 0 ZoneInfiltration:FlowCoefficient Open Studio ( 2018-08-08 07:45:04 -0600 )

10 0 When calibrating an energy model, what are the typical metrics to show proper calibration. ( 2018-08-06 09:08:44 -0600 )

10 0 What is the (Current) State of the OpenStudio Radiance Measure? ( 2018-08-01 15:00:16 -0600 )

10 0 where is the mathematical model of Dehumidifier:Desiccant:NoFans ( 2018-07-31 10:16:28 -0600 )

15 0 Best method to define individual space properties ( 2018-07-26 17:18:51 -0600 )

10 0 Best method to define individual space properties ( 2018-07-26 17:18:51 -0600 )

10 0 Chiller curve and AHRI test condition. ( 2018-07-26 00:34:42 -0600 )

10 0 Best method to define individual space properties ( 2018-07-25 12:34:17 -0600 )

10 0 Chiller curve and AHRI test condition. ( 2018-07-25 12:33:56 -0600 )

10 0 Availability for two different systems: VRF and radiant floors ( 2018-07-25 12:33:42 -0600 )

10 0 Availability for two different systems: VRF and radiant floors ( 2018-07-25 10:37:05 -0600 )

10 0 Best method to define individual space properties ( 2018-07-25 09:31:38 -0600 )

10 0 ZoneInfiltration:FlowCoefficient Open Studio ( 2018-07-24 11:43:39 -0600 )

10 0 ZoneInfiltration:FlowCoefficient Open Studio ( 2018-07-24 10:53:47 -0600 )

15 0 Can someone please provide me the steps for openstudio installation in Ubuntu 16.04 ? ( 2018-07-23 01:49:44 -0600 )

10 0 Can someone please provide me the steps for openstudio installation in Ubuntu 16.04 ? ( 2018-07-23 01:49:42 -0600 )